| time (UTC) | temp F | wind direction | speed MPH | gust MPH | rain 1hr in | rain 24hr in | rain mn in | humidity % | barometer mb |
| 20260906215944 | 65 | 226 | 1.0 | 2.0 | 0.00 | 0.00 | 0.00 | 1 | 1022.1 |
| 20260906214942 | 64 | 197 | 0.0 | 1.0 | 0.00 | 0.00 | 0.00 | 1 | 1022.1 |
| 20260906213941 | 62 | 197 | 1.0 | 1.0 | 0.00 | 0.00 | 0.00 | 1 | 1021.7 |
| 20260906212940 | 61 | 197 | 0.0 | 1.0 | 0.00 | 0.00 | 0.00 | 1 | 1021.7 |
| 20260906211938 | 60 | 197 | 0.0 | 1.0 | 0.00 | 0.00 | 0.00 | 1 | 1021.7 |
| 20260906210937 | 59 | 197 | 0.0 | 0.0 | 0.00 | 0.00 | 0.00 | 1 | 1021.4 |
| 20260906205935 | 58 | 197 | 0.0 | 0.0 | 0.00 | 0.00 | 0.00 | 1 | 1021.3 |
| 20260906204934 | 57 | 197 | 0.0 | 1.0 | 0.00 | 0.00 | 0.00 | 1 | 1021.0 |
| 20260906203932 | 56 | 197 | 0.0 | 1.0 | 0.00 | 0.00 | 0.00 | 1 | 1021.0 |
| 20260906202931 | 56 | 197 | 1.0 | 2.0 | 0.00 | 0.00 | 0.00 | 1 | 1021.0 |
| 20260906201930 | 56 | 197 | 1.0 | 2.0 | 0.00 | 0.00 | 0.00 | 1 | 1021.0 |
| 20260906200928 | 56 | 197 | 0.0 | 0.0 | 0.00 | 0.00 | 0.00 | 1 | 1020.7 |
| 20260906195927 | 56 | 197 | 0.0 | 1.0 | 0.00 | 0.00 | 0.00 | 1 | 1020.7 |
| 20260906194925 | 56 | 197 | 0.0 | 1.0 | 0.00 | 0.00 | 0.00 | 1 | 1020.7 |
| 20260906193852 | 57 | 197 | 0.0 | 1.0 | 0.00 | 0.00 | 0.00 | 1 | 1020.7 |
| 20260906192850 | 57 | 197 | 0.0 | 1.0 | 0.00 | 0.00 | 0.00 | 1 | 1021.0 |
| 20260906191849 | 57 | 197 | 1.0 | 1.0 | 0.00 | 0.00 | 0.00 | 1 | 1020.7 |
| 20260906190847 | 57 | 197 | 0.0 | 0.0 | 0.00 | 0.00 | 0.00 | 1 | 1020.7 |
| 20260906185846 | 57 | 197 | 0.0 | 0.0 | 0.00 | 0.00 | 0.00 | 1 | 1021.0 |
| 20260906184844 | 57 | 197 | 0.0 | 1.0 | 0.00 | 0.00 | 0.00 | 1 | 1021.0 |
| 20260906183843 | 57 | 197 | 0.0 | 1.0 | 0.00 | 0.00 | 0.00 | 1 | 1021.0 |
| 20260906182841 | 56 | 197 | 0.0 | 0.0 | 0.00 | 0.00 | 0.00 | 1 | 1021.4 |
| 20260906181840 | 56 | 197 | 0.0 | 0.0 | 0.00 | 0.00 | 0.00 | 1 | 1021.4 |
| 20260906180838 | 56 | 197 | 0.0 | 0.0 | 0.00 | 0.00 | 0.00 | 1 | 1021.4 |
| 20260906175836 | 57 | 197 | 0.0 | 0.0 | 0.00 | 0.00 | 0.00 | 1 | 1021.4 |
| 20260906174835 | 57 | 197 | 0.0 | 0.0 | 0.00 | 0.00 | 0.00 | 1 | 1021.0 |
| 20260906173833 | 57 | 197 | 0.0 | 0.0 | 0.00 | 0.00 | 0.00 | 1 | 1021.0 |
| 20260906172831 | 57 | 197 | 0.0 | 0.0 | 0.00 | 0.00 | 0.00 | 1 | 1021.0 |
| 20260906171830 | 57 | 197 | 0.0 | 0.0 | 0.00 | 0.00 | 0.00 | 1 | 1021.0 |
| 20260906170828 | 57 | 197 | 0.0 | 0.0 | 0.00 | 0.00 | 0.00 | 1 | 1021.0 |
| 20260906165826 | 58 | 197 | 0.0 | 0.0 | 0.00 | 0.00 | 0.00 | 1 | 1021.0 |
| 20260906164824 | 58 | 197 | 0.0 | 0.0 | 0.00 | 0.00 | 0.00 | 1 | 1021.0 |
| 20260906163823 | 58 | 197 | 0.0 | 1.0 | 0.00 | 0.00 | 0.00 | 1 | 1021.0 |
| 20260906162822 | 58 | 197 | 0.0 | 1.0 | 0.00 | 0.00 | 0.00 | 1 | 1021.0 |
| 20260906161718 | 58 | 197 | 0.0 | 0.0 | 0.00 | 0.00 | 0.00 | 1 | 1021.4 |
| 20260906160717 | 58 | 197 | 0.0 | 0.0 | 0.00 | 0.00 | 0.00 | 1 | 1021.4 |
| 20260906155644 | 58 | 197 | 0.0 | 0.0 | 0.00 | 0.00 | 0.00 | 1 | 1021.4 |
| 20260906154642 | 59 | 197 | 0.0 | 0.0 | 0.00 | 0.00 | 0.00 | 1 | 1021.4 |
| 20260906153609 | 59 | 197 | 0.0 | 0.0 | 0.00 | 0.00 | 0.00 | 1 | 1021.4 |
| 20260906152607 | 59 | 197 | 0.0 | 0.0 | 0.00 | 0.00 | 0.00 | 1 | 1021.7 |
| 20260906151605 | 59 | 197 | 0.0 | 0.0 | 0.00 | 0.00 | 0.00 | 1 | 1021.7 |
| 20260906150604 | 59 | 197 | 0.0 | 1.0 | 0.00 | 0.00 | 0.00 | 1 | 1021.7 |
| 20260906145602 | 59 | 197 | 0.0 | 1.0 | 0.00 | 0.00 | 0.00 | 1 | 1021.7 |
| 20260906144600 | 59 | 191 | 0.0 | 0.0 | 0.00 | 0.00 | 0.00 | 1 | 1021.7 |
| 20260906143559 | 59 | 191 | 0.0 | 0.0 | 0.00 | 0.00 | 0.00 | 1 | 1021.7 |
| 20260906142557 | 59 | 191 | 0.0 | 0.0 | 0.00 | 0.00 | 0.00 | 1 | 1021.7 |
| 20260906141556 | 59 | 191 | 0.0 | 0.0 | 0.00 | 0.00 | 0.00 | 1 | 1021.7 |
| 20260906140554 | 59 | 191 | 0.0 | 0.0 | 0.00 | 0.00 | 0.00 | 1 | 1021.7 |
| 20260906135553 | 59 | 191 | 0.0 | 0.0 | 0.00 | 0.00 | 0.00 | 1 | 1021.7 |
| 20260906134552 | 59 | 191 | 0.0 | 0.0 | 0.00 | 0.00 | 0.00 | 1 | 1021.4 |
| 20260906133550 | 59 | 191 | 0.0 | 0.0 | 0.00 | 0.00 | 0.00 | 1 | 1021.4 |
| 20260906132549 | 59 | 191 | 0.0 | 0.0 | 0.00 | 0.00 | 0.00 | 1 | 1021.4 |
| 20260906131517 | 60 | 191 | 0.0 | 0.0 | 0.00 | 0.00 | 0.00 | 1 | 1021.4 |
| 20260906130515 | 60 | 191 | 0.0 | 0.0 | 0.00 | 0.00 | 0.00 | 1 | 1021.4 |
| 20260906125411 | 60 | 191 | 0.0 | 0.0 | 0.00 | 0.00 | 0.00 | 1 | 1021.7 |
| 20260906124409 | 60 | 191 | 0.0 | 1.0 | 0.00 | 0.00 | 0.00 | 1 | 1021.7 |
| 20260906123408 | 60 | 191 | 0.0 | 2.0 | 0.00 | 0.00 | 0.00 | 1 | 1021.4 |
| 20260906122406 | 61 | 191 | 0.0 | 3.0 | 0.00 | 0.00 | 0.00 | 1 | 1021.4 |
| 20260906121404 | 61 | 145 | 1.0 | 3.0 | 0.00 | 0.00 | 0.00 | 1 | 1021.4 |
| 20260906120403 | 61 | 125 | 0.0 | 3.0 | 0.00 | 0.00 | 0.00 | 1 | 1021.4 |
| 20260906115401 | 62 | 125 | 0.0 | 3.0 | 0.00 | 0.00 | 0.00 | 1 | 1021.4 |
| 20260906114400 | 62 | 125 | 1.0 | 5.0 | 0.00 | 0.00 | 0.00 | 1 | 1021.4 |
| 20260906113358 | 62 | 138 | 0.0 | 9.0 | 0.00 | 0.00 | 0.00 | 1 | 1021.4 |
| 20260906112325 | 62 | 131 | 1.0 | 9.0 | 0.00 | 0.00 | 0.00 | 1 | 1021.4 |
| 20260906111323 | 62 | 112 | 2.0 | 9.0 | 0.00 | 0.00 | 0.00 | 1 | 1021.4 |
| 20260906110321 | 62 | 134 | 2.0 | 8.0 | 0.00 | 0.00 | 0.00 | 1 | 1021.0 |
| 20260906105320 | 63 | 123 | 2.0 | 9.0 | 0.00 | 0.00 | 0.00 | 1 | 1021.0 |
| 20260906104319 | 63 | 119 | 3.0 | 9.0 | 0.00 | 0.00 | 0.00 | 1 | 1021.0 |
| 20260906103317 | 63 | 122 | 4.0 | 9.0 | 0.00 | 0.00 | 0.00 | 1 | 1021.0 |
| 20260906102245 | 63 | 118 | 2.0 | 9.0 | 0.00 | 0.00 | 0.00 | 2 | 1020.7 |
| 20260906101243 | 63 | 121 | 4.0 | 10.0 | 0.00 | 0.00 | 0.00 | 4 | 1020.7 |
| 20260906100242 | 63 | 141 | 3.0 | 10.0 | 0.00 | 0.00 | 0.00 | 7 | 1020.7 |
| 20260906095240 | 63 | 121 | 3.0 | 11.0 | 0.00 | 0.00 | 0.00 | 9 | 1020.4 |
| 20260906094239 | 64 | 110 | 2.0 | 11.0 | 0.00 | 0.00 | 0.00 | 10 | 1020.4 |
| 20260906093206 | 64 | 125 | 3.0 | 10.0 | 0.00 | 0.00 | 0.00 | 12 | 1020.4 |
| 20260906092204 | 64 | 110 | 2.0 | 11.0 | 0.00 | 0.00 | 0.00 | 14 | 1020.0 |
| 20260906091203 | 64 | 121 | 5.0 | 11.0 | 0.00 | 0.00 | 0.00 | 12 | 1020.0 |
| 20260906090059 | 64 | 117 | 2.0 | 11.0 | 0.00 | 0.00 | 0.00 | 10 | 1020.0 |
| 20260906085058 | 64 | 114 | 1.0 | 11.0 | 0.00 | 0.00 | 0.00 | 10 | 1019.7 |
| 20260906084056 | 64 | 113 | 3.0 | 9.0 | 0.00 | 0.00 | 0.00 | 12 | 1019.7 |
| 20260906083055 | 64 | 130 | 3.0 | 10.0 | 0.00 | 0.00 | 0.00 | 15 | 1019.7 |
| 20260906082053 | 64 | 108 | 4.0 | 10.0 | 0.00 | 0.00 | 0.00 | 18 | 1019.3 |
| 20260906081052 | 65 | 133 | 4.0 | 9.0 | 0.00 | 0.00 | 0.00 | 24 | 1019.3 |
| 20260906080050 | 65 | 126 | 2.0 | 11.0 | 0.00 | 0.00 | 0.00 | 28 | 1019.0 |
| 20260906075017 | 65 | 125 | 4.0 | 12.0 | 0.00 | 0.00 | 0.00 | 34 | 1019.0 |
| 20260906074016 | 66 | 141 | 2.0 | 12.0 | 0.00 | 0.00 | 0.00 | 46 | 1018.7 |
| 20260906072943 | 66 | 131 | 3.0 | 10.0 | 0.00 | 0.00 | 0.00 | 49 | 1018.3 |
| 20260906071911 | 66 | 130 | 3.0 | 13.0 | 0.00 | 0.00 | 0.00 | 52 | 1018.3 |
| 20260906070909 | 66 | 127 | 3.0 | 13.0 | 0.00 | 0.00 | 0.00 | 55 | 1018.0 |
| 20260906065908 | 67 | 132 | 5.0 | 13.0 | 0.00 | 0.00 | 0.00 | 54 | 1018.0 |
| 20260906064906 | 67 | 137 | 4.0 | 13.0 | 0.00 | 0.00 | 0.00 | 54 | 1017.7 |
| 20260906063905 | 67 | 136 | 4.0 | 10.0 | 0.00 | 0.00 | 0.00 | 54 | 1017.7 |
| 20260906062904 | 68 | 130 | 3.0 | 9.0 | 0.00 | 0.00 | 0.00 | 55 | 1017.3 |
| 20260906061902 | 68 | 111 | 4.0 | 9.0 | 0.00 | 0.00 | 0.00 | 52 | 1017.3 |
| 20260906060901 | 69 | 129 | 2.0 | 9.0 | 0.00 | 0.00 | 0.00 | 51 | 1017.4 |
| 20260906055859 | 69 | 114 | 1.0 | 9.0 | 0.00 | 0.00 | 0.00 | 51 | 1017.0 |
| 20260906054858 | 69 | 121 | 3.0 | 9.0 | 0.00 | 0.00 | 0.00 | 49 | 1017.0 |
| 20260906053857 | 70 | 69 | 5.0 | 11.0 | 0.00 | 0.00 | 0.00 | 47 | 1016.7 |
| 20260906052855 | 71 | 103 | 4.0 | 11.0 | 0.00 | 0.00 | 0.00 | 43 | 1016.7 |
| 20260906051853 | 72 | 94 | 4.0 | 9.0 | 0.00 | 0.00 | 0.00 | 42 | 1016.7 |
| 20260906050852 | 72 | 125 | 2.0 | 8.0 | 0.00 | 0.00 | 0.00 | 42 | 1016.4 |
| 20260906045850 | 71 | 24 | 2.0 | 8.0 | 0.00 | 0.00 | 0.00 | 41 | 1016.4 |
| 20260906044848 | 72 | 110 | 2.0 | 7.0 | 0.00 | 0.00 | 0.00 | 42 | 1016.4 |
| 20260906043846 | 72 | 113 | 2.0 | 5.0 | 0.00 | 0.00 | 0.00 | 41 | 1016.0 |
| 20260906042844 | 71 | 131 | 1.0 | 7.0 | 0.00 | 0.00 | 0.00 | 44 | 1016.0 |
| 20260906041811 | 71 | 94 | 2.0 | 7.0 | 0.00 | 0.00 | 0.00 | 43 | 1016.0 |
| 20260906040810 | 72 | 84 | 2.0 | 7.0 | 0.00 | 0.00 | 0.00 | 43 | 1016.0 |
| 20260906035809 | 72 | 114 | 2.0 | 6.0 | 0.00 | 0.00 | 0.00 | 42 | 1016.0 |
| 20260906034807 | 72 | 122 | 3.0 | 8.0 | 0.00 | 0.00 | 0.00 | 42 | 1016.0 |
| 20260906033704 | 72 | 87 | 2.0 | 8.0 | 0.00 | 0.00 | 0.00 | 42 | 1016.0 |
| 20260906032702 | 72 | 117 | 2.0 | 5.0 | 0.00 | 0.00 | 0.00 | 42 | 1016.0 |
| 20260906031701 | 73 | 132 | 2.0 | 9.0 | 0.00 | 0.00 | 0.00 | 42 | 1015.7 |
| 20260906030628 | 73 | 134 | 3.0 | 9.0 | 0.00 | 0.00 | 0.00 | 40 | 1015.7 |
| 20260906025524 | 76 | 94 | 2.0 | 7.0 | 0.00 | 0.00 | 0.00 | 38 | 1015.7 |
| 20260906024522 | 76 | 116 | 1.0 | 6.0 | 0.00 | 0.00 | 0.00 | 36 | 1015.7 |
| 20260906023521 | 76 | 254 | 1.0 | 9.0 | 0.00 | 0.00 | 0.00 | 37 | 1015.7 |
| 20260906022520 | 75 | 286 | 1.0 | 9.0 | 0.00 | 0.00 | 0.00 | 37 | 1016.0 |
| 20260906021518 | 75 | 172 | 1.0 | 8.0 | 0.00 | 0.00 | 0.00 | 36 | 1015.7 |
| 20260906020517 | 75 | 177 | 1.0 | 8.0 | 0.00 | 0.00 | 0.00 | 37 | 1016.0 |
| 20260906015516 | 75 | 175 | 3.0 | 6.0 | 0.00 | 0.00 | 0.00 | 36 | 1016.0 |
| 20260906014515 | 74 | 226 | 1.0 | 5.0 | 0.00 | 0.00 | 0.00 | 38 | 1016.0 |
| 20260906013514 | 73 | 243 | 2.0 | 6.0 | 0.00 | 0.00 | 0.00 | 39 | 1016.0 |
| 20260906012512 | 72 | 286 | 2.0 | 6.0 | 0.00 | 0.00 | 0.00 | 40 | 1016.0 |
| 20260906011440 | 72 | 286 | 2.0 | 7.0 | 0.00 | 0.00 | 0.00 | 39 | 1016.0 |
| 20260906010438 | 72 | 261 | 4.0 | 7.0 | 0.00 | 0.00 | 0.00 | 39 | 1016.0 |
| 20260906005436 | 72 | 250 | 1.0 | 8.0 | 0.00 | 0.00 | 0.00 | 40 | 1016.0 |
| 20260906004435 | 72 | 219 | 1.0 | 8.0 | 0.00 | 0.00 | 0.00 | 40 | 1016.0 |
| 20260906003433 | 72 | 275 | 2.0 | 8.0 | 0.00 | 0.00 | 0.00 | 41 | 1016.0 |
| 20260906002432 | 71 | 280 | 1.0 | 8.0 | 0.00 | 0.00 | 0.00 | 42 | 1016.0 |
| 20260906001430 | 70 | 300 | 2.0 | 8.0 | 0.00 | 0.00 | 0.00 | 43 | 1016.0 |
| 20260906000357 | 70 | 264 | 2.0 | 4.0 | 0.00 | 0.00 | 0.00 | 42 | 1015.7 |
| 20260905235151 | 69 | 263 | 2.0 | 8.0 | 0.00 | 0.00 | 0.00 | 43 | 1016.0 |
| 20260905234149 | 69 | 278 | 2.0 | 8.0 | 0.00 | 0.00 | 0.00 | 44 | 1015.7 |
| 20260905233147 | 68 | 262 | 3.0 | 8.0 | 0.00 | 0.00 | 0.00 | 46 | 1015.7 |
| 20260905232146 | 68 | 271 | 3.0 | 8.0 | 0.00 | 0.00 | 0.00 | 45 | 1015.7 |
| 20260905231144 | 67 | 8 | 1.0 | 10.0 | 0.00 | 0.00 | 0.00 | 48 | 1015.7 |
| 20260905230143 | 67 | 260 | 3.0 | 10.0 | 0.00 | 0.00 | 0.00 | 47 | 1015.7 |
| 20260905225110 | 66 | 241 | 3.0 | 10.0 | 0.00 | 0.00 | 0.00 | 48 | 1015.3 |
| 20260905224037 | 66 | 243 | 4.0 | 8.0 | 0.00 | 0.00 | 0.00 | 47 | 1015.3 |
| 20260905223036 | 65 | 303 | 1.0 | 12.0 | 0.00 | 0.00 | 0.00 | 50 | 1015.3 |
| 20260905222034 | 65 | 268 | 5.0 | 12.0 | 0.00 | 0.00 | 0.00 | 49 | 1015.3 |
| 20260905220931 | 64 | 249 | 3.0 | 9.0 | 0.00 | 0.00 | 0.00 | 51 | 1015.0 |